This is the latest recevied weather packets stored in our database for station/object 9M2ABD-1. If no packets are shown the sender has not sent any weather packets the latest 10 day(s).
| Time | Temp. | Humidity | Pressure | Rain* | Wind** | Luminosity | Snow |
|---|---|---|---|---|---|---|---|
| 1788438328 | 33.33° C | 54% | 1009.9 hPa | - | - | - | - |
| 1788437128 | 33.33° C | 53% | 1009.8 hPa | - | - | - | - |
| 1788435928 | 33.33° C | 53% | 1009.7 hPa | - | - | - | - |
| 1788434727 | 33.33° C | 52% | 1009.4 hPa | - | - | - | - |
| 1788433598 | 33.33° C | 49% | 1009.2 hPa | - | - | - | - |
| 1788433527 | 33.33° C | 49% | 1009.2 hPa | - | - | - | - |
| 1788432327 | 33.33° C | 50% | 1009.1 hPa | - | - | - | - |
| 1788431126 | 33.89° C | 47% | 1009.1 hPa | - | - | - | - |
| 1788429976 | 33.89° C | 48% | 1009 hPa | - | - | - | - |
| 1788429926 | 33.89° C | 48% | 1009 hPa | - | - | - | - |
| 1788425132 | 34.44° C | 47% | 1009 hPa | - | - | - | - |
| 1788423932 | 34.44° C | 46% | 1008.9 hPa | - | - | - | - |
| 1788422732 | 34.44° C | 47% | 1009 hPa | - | - | - | - |
| 1788421526 | 33.89° C | 44% | 1009.3 hPa | - | - | - | - |
| 1788420326 | 33.89° C | 46% | 1009.4 hPa | - | - | - | - |
| 1788420091 | 33.89° C | 50% | 1009.6 hPa | - | - | - | - |
| 1788419126 | 33.89° C | 50% | 1009.6 hPa | - | - | - | - |
| 1788417958 | 33.89° C | 53% | 1009.7 hPa | - | - | - | - |
| 1788417926 | 33.89° C | 53% | 1009.7 hPa | - | - | - | - |
| 1788416726 | 33.89° C | 52% | 1010.1 hPa | - | - | - | - |
| 1788415526 | 33.89° C | 52% | 1010.5 hPa | - | - | - | - |
| 1788414326 | 33.89° C | 56% | 1010.8 hPa | - | - | - | - |
| 1788413126 | 33.89° C | 56% | 1011.4 hPa | - | - | - | - |
| 1788411926 | 33.33° C | 55% | 1011.9 hPa | - | - | - | - |
| 1788410726 | 33.33° C | 56% | 1012.2 hPa | - | - | - | - |
* Rain since midnight (hover to see other rain measurements)
** Current wind speed in m/s (hover to see current wind gust speed)